SCP
4 4 4 4 3 3 3 3 2 2 3 3 4 4 4 4 4 3 3 3 3 3 4 4 5 5 6 7 7 7 6 5 4 3 3 4 4 4 4 5 4 3 3
4 4 4 4 3 3 3 3 3 3 3 3 3 4 4 4 4 4 4 4 4 5 5 5 6 6 7 9 9 8 6 6 5 4 4 4 4 4 4 4 3 3 3
5 5 4 4 3 3 3 4 4 4 4 4 4 3 3 4 4 4 4 5 6 6 7 8 8 8 9 11 11 9 7 5 5 4 4 4 4 4 4 3 3 3 3
6 6 5 5 4 3 4 4 5 5 5 5 5 4 4 4 4 4 5 6 6 7 8 8 8 8 9 11 11 9 7 5 4 3 3 3 3 4 4 3 3 3 3
7 7 7 6 5 4 4 4 5 5 5 6 6 6 6 5 5 5 6 6 6 7 7 7 7 7 8 8 8 7 5 4 3 3 3 3 3 3 3 3 2 3 3
6 6 7 7 6 6 5 5 5 5 5 6 7 7 7 6 6 6 7 8 7 7 6 6 5 5 5 5 4 4 3 2 2 3 3 3 3 3 3 3 3 3 4
6 6 6 7 7 7 7 6 6 5 6 6 7 8 9 8 7 6 7 8 8 7 6 5 4 3 3 3 2 1 1 1 2 3 3 3 3 3 3 3 4 4 4
6 6 6 7 8 8 8 8 8 8 8 10 11 12 13 11 8 5 5 6 7 5 4 3 3 2 2 2 1 1 2 2 2 2 3 3 3 3 3 3 4 4 4
5 5 6 7 9 9 9 9 10 11 12 13 14 15 16 13 7 3 3 4 4 3 3 2 2 2 2 2 2 2 2 2 2 2 2 2 2 2 2 3 3 3 3
6 6 7 8 9 10 10 11 12 13 14 14 15 15 15 11 5 2 2 3 3 2 2 2 2 2 2 1 2 2 2 2 2 2 3 2 2 1 1 2 3 3 2
8 7 7 7 8 9 11 12 13 13 12 12 11 11 10 7 3 1 1 2 3 3 3 3 2 2 1 1 2 2 2 2 2 3 3 3 3 2 2 2 2 3 2
8 9 9 8 7 8 9 9 10 10 9 8 7 7 6 5 3 2 1 1 2 3 4 3 3 2 1 1 1 1 2 2 2 3 4 3 3 2 2 2 2 2 2
10 10 10 8 7 7 6 6 5 5 5 4 5 5 5 4 4 3 2 1 1 2 3 3 2 2 2 1 1 1 1 2 3 4 4 3 2 2 2 2 2 2 2
10 10 9 8 7 6 4 3 3 3 3 3 4 5 5 4 4 4 3 2 1 2 2 2 2 2 2 3 2 2 2 2 3 3 3 3 3 3 3 2 2 1 1
9 8 7 6 5 4 3 2 2 2 3 3 4 5 4 3 3 3 3 3 2 2 2 2 3 3 4 4 4 4 3 3 3 4 4 3 3 3 3 2 2 2 1
8 7 6 5 4 3 2 1 1 1 2 2 3 3 3 2 1 1 1 1 1 1 2 2 3 3 4 5 5 5 5 4 4 4 4 4 4 4 3 3 3 2 2
7 6 5 4 3 2 2 1 1 1 1 1 1 1 1 1 0 0 0 0 0 1 1 2 3 3 4 4 5 5 5 5 5 5 5 4 4 4 4 4 3 2 2
6 5 4 4 3 2 2 1 1 1 1 1 1 0 0 0 0 0 0 0 1 1 1 2 3 3 4 4 4 4 5 5 6 6 5 5 5 5 4 4 3 2 2
5 5 4 3 3 2 2 2 1 1 1 1 1 1 0 0 0 0 0 1 1 2 2 2 3 4 4 4 4 4 4 5 5 6 5 5 5 5 5 4 3 2 2
4 4 3 2 2 2 2 2 2 1 1 2 2 1 1 0 1 1 1 1 2 2 2 3 3 3 3 4 4 3 3 4 5 5 6 6 5 5 5 5 4 3 2
3 2 2 2 2 2 2 2 2 2 1 2 2 2 1 1 1 1 1 1 1 2 2 2 2 3 3 3 3 3 2 2 3 5 6 6 5 5 5 5 4 3 2
2 1 1 1 1 1 1 1 1 1 1 1 1 1 1 1 1 1 1 1 1 1 1 1 2 2 3 3 3 2 2 2 2 3 5 6 5 5 4 4 4 4 3
2 1 1 1 1 1 1 1 1 1 1 1 1 1 1 1 1 1 1 1 1 1 1 1 1 1 2 2 2 2 2 1 1 2 3 4 4 4 4 4 4 4 4
2 1 1 1 1 1 0 1 1 1 1 1 1 1 1 1 1 1 1 1 1 1 1 1 1 1 1 2 2 2 1 1 1 1 2 2 3 3 4 4 3 3 3
2 2 1 1 1 1 1 0 0 1 1 1 1 1 1 1 1 1 1 1 1 1 1 1 1 1 1 1 1 1 1 1 1 1 1 1 1 2 3 3 3 2 2
2 1 1 1 1 1 1 1 1 1 1 1 1 1 1 1 1 1 1 1 1 1 1 1 1 1 1 0 0 0 0 0 0 0 1 1 1 1 2 3 3 3 3
Wind_Speed
7 7 7 8 8 8 8 8 8 7 7 7 7 7 7 7 7 7 7 6 7 7 6 6 6 6 5 4 4 5 5 5 5 4 3 2 3 4 2 4 4 4 3
5 7 8 8 8 8 9 9 8 8 8 8 8 8 8 8 7 8 8 7 7 7 7 6 7 5 6 6 5 6 4 4 5 5 4 4 4 4 4 5 5 4 3
5 6 7 7 8 8 8 8 8 9 8 8 8 8 8 8 8 8 8 7 7 7 7 7 6 6 6 5 6 5 4 5 5 5 5 3 4 3 4 5 5 4 5
4 5 6 6 7 8 8 8 8 8 8 8 8 8 8 8 8 7 7 7 7 7 7 7 7 7 7 6 6 6 5 5 5 5 4 4 3 3 4 5 4 4 4
4 5 5 6 6 7 7 7 8 8 8 8 8 8 8 8 7 7 7 7 7 7 7 6 6 5 5 5 5 5 5 5 5 5 5 4 4 4 4 4 4 4 3
4 4 4 5 5 6 7 7 7 8 7 7 8 8 8 6 4 6 7 7 6 6 6 6 6 6 5 5 5 5 5 6 6 5 5 5 5 5 4 5 4 4 3
4 4 4 4 5 5 6 6 6 7 7 7 7 7 6 5 5 6 7 6 6 5 5 5 5 3 4 4 4 6 5 5 5 6 6 6 5 4 4 5 4 4 4
3 3 3 4 4 4 5 5 6 5 6 5 5 5 5 4 5 5 6 7 5 5 4 4 4 3 3 2 4 4 4 3 4 5 4 5 4 3 4 5 4 4 4
4 3 3 4 4 4 5 5 5 4 5 5 4 4 4 3 4 4 5 5 4 4 4 4 4 4 2 2 4 4 3 2 1 1 1 1 1 1 2 3 3 4 4
3 3 3 3 4 4 4 4 4 4 4 4 3 4 4 4 4 5 6 4 4 4 3 4 3 2 2 3 5 4 4 3 2 2 2 3 2 3 4 4 3 3 3
2 2 3 3 3 4 3 3 3 3 3 3 3 3 3 3 4 5 6 4 4 4 3 3 2 4 4 3 4 3 2 2 2 3 2 2 2 2 2 2 2 3 3
2 2 2 2 2 1 2 2 3 3 3 4 3 3 2 2 2 4 6 5 3 3 3 2 2 5 4 3 2 1 1 3 3 2 2 1 1 1 1 1 1 2 2
1 1 1 1 1 1 2 2 3 3 3 3 3 3 2 2 2 4 5 4 4 3 2 1 3 5 5 3 4 4 4 3 3 3 2 2 2 1 1 1 2 2 2
1 1 1 1 1 0 1 1 1 2 2 2 2 2 2 2 2 2 2 3 4 4 2 3 5 5 4 3 3 4 3 2 2 2 2 2 2 2 3 2 2 2 2
1 1 1 1 1 0 0 1 1 0 1 1 2 2 2 1 1 1 1 1 1 1 1 2 3 3 3 3 2 2 2 2 2 2 2 2 2 2 2 2 2 2 2
2 1 1 1 1 1 1 2 5 3 4 3 1 1 0 2 2 2 1 1 1 2 3 3 3 3 3 3 3 2 2 2 2 2 2 3 2 2 2 2 2 2 2
1 1 1 1 1 1 1 1 1 2 3 3 2 2 1 2 2 2 2 1 2 4 3 3 3 3 3 3 3 2 2 2 2 3 2 2 2 2 2 2 2 2 2
2 2 2 1 1 1 1 1 1 1 1 1 2 3 3 3 3 3 3 3 3 3 3 3 2 2 3 3 3 2 2 2 2 2 2 2 2 3 3 3 3 3 3
2 1 1 1 1 1 1 1 1 1 1 1 1 2 3 4 4 4 5 3 2 2 2 2 2 2 3 3 2 2 3 3 3 3 3 3 3 3 3 3 3 3 4
1 0 1 1 1 1 2 1 1 1 1 1 1 0 1 1 2 2 3 2 2 2 2 2 2 3 2 2 2 3 3 3 4 3 3 3 3 3 4 4 4 3 3
1 2 2 2 2 2 1 1 1 1 1 1 1 1 1 2 2 2 2 2 2 2 2 2 2 3 3 3 3 3 4 3 3 3 3 3 4 4 4 4 4 4 3
1 2 2 2 2 1 1 2 2 2 2 2 1 2 3 3 2 1 2 2 2 2 2 2 2 2 2 2 2 3 3 3 3 4 4 4 4 4 4 4 4 3 3
2 2 2 2 2 1 2 2 2 2 2 2 2 1 2 2 2 2 2 2 2 2 2 2 2 2 2 2 2 3 3 3 3 3 4 4 4 4 4 4 5 5 4
2 2 1 1 1 2 2 2 2 2 2 2 2 2 2 2 2 2 3 2 2 2 2 2 2 2 3 3 2 2 1 2 3 4 5 5 5 4 4 4 5 6 6
2 2 2 1 2 2 2 2 2 3 3 3 2 2 2 2 2 3 3 2 2 2 3 2 2 3 3 3 2 1 1 2 3 5 5 5 6 6 6 6 5 5 6
2 2 2 2 2 2 2 3 3 3 3 2 2 3 3 3 3 2 2 2 2 2 2 2 2 2 3 3 2 0 0 1 2 5 6 5 6 5 6 6 7 7 6
Wind_Direction
210 212 221 219 220 222 225 229 227 229 227 228 228 227 227 226 225 228 237 236 238 242 244 241 242 252 247 242 236 236 240 244 252 259 255 230 238 261 259 263 256 248 211
217 217 220 224 225 225 226 229 228 228 229 227 229 229 230 229 227 229 234 234 237 241 244 246 247 243 240 249 244 241 240 244 251 259 257 246 238 243 249 258 260 254 258
217 220 220 223 225 228 231 230 229 230 232 233 229 231 234 233 229 230 234 236 239 242 243 242 243 244 244 243 244 243 241 239 245 254 255 254 254 250 256 255 257 257 259
225 226 228 232 233 233 234 235 234 231 231 232 232 232 232 233 232 231 234 238 240 241 241 242 241 239 238 239 239 240 242 247 243 248 252 249 249 248 251 254 248 236 256
233 236 238 241 240 237 234 233 235 236 234 232 232 232 233 232 233 231 233 235 239 240 239 242 246 249 259 257 258 247 244 246 244 244 247 250 244 240 248 257 262 261 244
240 247 248 248 245 242 239 234 234 236 237 235 232 232 233 236 225 226 235 235 236 238 238 238 240 236 239 234 249 256 256 250 253 255 251 251 249 247 252 256 258 259 256
244 251 253 255 255 251 246 239 237 235 233 234 235 230 230 230 211 214 222 231 235 236 236 239 247 240 238 247 229 226 234 241 251 261 261 263 260 254 250 250 253 268 275
248 255 257 254 255 251 243 241 239 237 232 229 231 229 228 216 191 199 208 223 233 232 233 233 238 243 243 245 247 238 238 238 240 245 259 267 270 262 247 250 254 251 247
247 250 252 251 250 249 242 240 239 237 233 227 223 227 228 205 169 181 198 222 219 227 228 227 225 226 204 233 230 231 236 235 208 185 288 304 338 272 266 257 243 241 243
261 258 254 248 245 245 247 243 240 233 230 228 219 223 217 207 169 177 201 222 216 220 216 216 201 206 196 222 223 221 231 238 236 206 186 195 213 199 203 235 252 257 260
283 265 259 253 245 243 243 236 230 230 225 220 213 219 213 207 180 182 201 226 221 220 219 213 181 156 182 220 236 232 236 246 228 227 214 198 197 216 213 219 256 264 270
286 259 252 258 264 236 223 226 224 218 211 210 203 214 215 201 192 185 192 217 240 226 225 220 166 158 177 204 216 194 219 232 224 222 215 221 230 241 245 258 263 286 292
292 253 236 231 250 224 203 204 204 208 218 209 205 204 198 192 167 167 176 198 216 227 233 149 168 174 177 186 193 202 215 224 223 225 222 229 243 236 226 212 204 215 246
247 242 224 200 202 189 257 244 223 209 215 205 208 228 217 195 181 171 173 176 179 188 179 155 175 190 195 200 197 203 218 242 253 244 232 224 226 221 218 214 210 222 226
240 233 217 191 154 130 93 5 313 322 312 260 239 236 236 209 82 30 235 218 211 163 175 209 215 205 203 207 213 215 215 216 226 240 240 229 223 217 218 218 233 245 257
230 226 209 190 173 184 136 94 53 37 67 80 49 292 33 94 106 94 117 199 204 199 200 210 219 218 215 217 218 216 213 221 234 237 235 234 229 224 223 223 236 253 262
245 247 239 196 179 189 155 141 112 86 86 87 105 122 149 125 125 145 176 192 212 210 211 216 221 224 225 227 227 227 227 226 236 236 230 232 233 233 236 236 240 243 253
220 207 235 208 194 194 171 156 157 161 143 117 122 147 156 157 165 179 184 187 199 202 214 220 222 223 229 230 229 231 232 228 225 229 231 234 234 235 237 239 242 251 252
236 220 211 225 208 193 189 177 172 171 171 155 133 130 146 160 174 192 197 218 219 225 226 225 228 226 229 228 229 233 233 230 232 233 227 235 239 240 244 245 246 240 254
209 65 251 228 214 197 197 203 198 195 198 182 197 147 135 190 210 194 211 235 239 236 236 234 237 241 239 240 240 242 238 227 221 225 229 234 234 238 241 244 254 251 245
210 163 184 229 224 213 218 223 217 213 221 226 212 139 180 235 240 233 245 256 260 259 255 252 246 241 233 229 233 238 243 242 236 236 236 236 236 236 241 242 245 253 258
225 217 213 225 228 226 232 233 223 217 221 235 231 159 183 239 240 235 242 254 256 250 245 245 249 249 248 247 243 247 247 247 244 239 236 235 232 235 236 241 246 254 259
229 227 223 225 223 201 222 237 239 232 235 237 244 237 218 242 253 252 250 253 256 259 253 248 251 246 234 234 231 236 248 257 258 256 249 240 237 238 239 237 240 247 251
219 225 224 217 222 222 228 234 234 233 240 243 245 247 240 237 249 252 253 251 248 247 243 239 244 249 248 244 235 232 254 288 272 252 246 245 243 243 242 244 248 250 249
216 214 224 232 235 239 244 246 245 249 254 255 254 256 250 243 247 250 250 247 249 247 246 245 241 239 244 249 253 295 27 315 292 286 252 245 246 249 252 251 249 252 251
208 213 235 244 250 253 253 251 250 254 260 266 269 270 265 255 250 250 246 242 245 246 248 245 251 253 253 246 245 263 203 265 278 283 270 255 254 256 258 255 252 252 250